Location: Namasale
(1.5000°N, 32.6167°E)
Time: 19:28:08
(UTC+00:00)

Courier 1B - Pass Details

Date: 25 April 2021
Orbit: 962 x 1209 km, 28.3° (Epoch: 10 May)

Event Time Altitude Azimuth Distance (km) Brightness Sun altitude
Rises 03:23:07 0° 228° (SW) 4,109 - -5.6°
Exits shadow 03:23:27 - 228° (SW) 4,001 10.2 -5.5°
Reaches altitude 10° 03:26:09 10° 222° (SW) 3,137 9.7 -4.9°
Maximum altitude 03:33:36 47° 151° (SSE) 1,516 8.7 -3.0°
Drops below altitude 10° 03:40:45 10° 79° (E) 3,018 12.3 -1.3°
Sets 03:43:36 0° 73° (ENE) 3,941 14.1 -0.6°
